Flag for Germany Weather past 2 weeks in Ahlen, North Rhine-Westphalia, Germany

Now
48 °F

Light rain. Partly cloudy.


Feels Like: 42 °F
Forecast: 45 / 58 °F
Wind: 17 mph from Northwest

Location: Dortmund / Wickede

Current Time: May 30, 2015 at 1:29:55 AM

Latest Report: May 29, 2015 at 10:50 PM


Visibility: N/A

Pressure: 29.74 "Hg

Humidity: 87%

Dew point: 45 °F

Location of AhlenLocation

Historic Weather in Ahlen — Graph

°F

Ahlen temperature yesterday

Maximum temperature yesterday: 61 °F (at 2:50 PM)
Minimum temperature yesterday: 48 °F (at 5:20 AM)
Average temperature yesterday: 56 °F

Past Weeks' High & Low Weather Summary

 TemperatureHumidityPressure
High68 °F (May 22, 3:50 PM)94% (May 25, 11:50 AM)30.33 "Hg (May 25, 11:50 AM)
Low39 °F (May 16, 5:20 AM)32% (May 21, 3:50 PM)29.62 "Hg (May 18, 7:20 PM)
Average55 °F62%30.04 "Hg
* Reported May 14 10:20 PM — May 29 10:50 PM, Ahlen, Weather by CustomWeather, © 2015

Note: Actual official high and low records may vary slightly from our data, if they occured in-between our weather recording intervals... More about our weather records

Advertising

Ahlen weather history for previous 24 hours

 ConditionsComfort  
Time TempWeatherWind HumidityBarometerVisibility
10:50 PM
Fri, May 29
48 °FLight rain. Partly cloudy.17 mph87%29.74 "HgN/A
10:20 PM55 °FLight rain. Partly sunny.16 mph59%29.74 "HgN/A
9:50 PM55 °FDrizzle. Overcast.15 mph59%29.74 "HgN/A
9:20 PM57 °FOvercast.15 mph51%29.74 "HgN/A
8:50 PM57 °FOvercast.14 mph51%29.74 "HgN/A
8:20 PM57 °FSunny.16 mph51%29.74 "Hg10 mi
7:50 PM57 °FSunny.17 mph48%29.74 "Hg10 mi
7:20 PM59 °FSunny.18 mph45%29.74 "Hg10 mi
6:50 PM59 °FPassing clouds.15 mph48%29.71 "HgN/A
6:20 PM61 °FScattered clouds.15 mph48%29.71 "HgN/A
5:50 PM61 °FScattered clouds.13 mph52%29.74 "HgN/A
5:20 PM61 °FScattered clouds.10 mph55%29.74 "HgN/A
4:50 PM61 °FScattered clouds.16 mph52%29.74 "HgN/A
4:20 PM59 °FScattered clouds.14 mph51%29.77 "HgN/A
3:50 PM61 °FPassing clouds.17 mph52%29.77 "HgN/A
3:20 PM59 °FScattered clouds.15 mph51%29.77 "HgN/A
2:50 PM61 °FScattered clouds.15 mph52%29.77 "HgN/A
2:20 PM59 °FSunny.13 mph51%29.77 "Hg10 mi
1:50 PM59 °FPartly sunny.15 mph55%29.80 "HgN/A
1:20 PM59 °FPartly sunny.13 mph55%29.80 "HgN/A
12:50 PM59 °FScattered clouds.12 mph59%29.80 "HgN/A
12:20 PM57 °FScattered clouds.14 mph59%29.83 "HgN/A
11:50 AM57 °FScattered clouds.14 mph59%29.83 "HgN/A
11:20 AM55 °FScattered clouds.14 mph63%29.86 "HgN/A
10:50 AM55 °FScattered clouds.12 mph67%29.86 "HgN/A
10:20 AM55 °FPartly sunny.10 mph72%29.86 "HgN/A
9:50 AM54 °FPartly sunny.12 mph77%29.86 "HgN/A
9:20 AM54 °FSunny.9 mph77%29.86 "Hg10 mi
8:50 AM52 °FSunny.8 mph82%29.86 "Hg10 mi
8:20 AM52 °FPassing clouds.7 mph82%29.86 "HgN/A
7:50 AM52 °FSunny.3 mph82%29.89 "Hg10 mi
7:20 AM50 °FClear.7 mph88%29.89 "Hg6 mi
6:50 AM50 °FClear.6 mph82%29.89 "Hg6 mi
6:20 AM50 °FClear.7 mph88%29.89 "Hg6 mi
5:50 AM50 °FClear.7 mph88%29.89 "Hg5 mi
5:20 AM48 °FClear.9 mph94%29.89 "Hg5 mi
Weather by CustomWeather, © 2015

See weather overviewHow to use our weather pages